Location: Góry Miechowskie
(50.3599°N, 20.1803°E)
Time: 15:40:23
(UTC+00:00)

Vanguard 1 Rocket - Pass Details

Date: 19 September 2024
Orbit: 650 x 4218 km, 34.3° (Epoch: 07 October)

Event Time Altitude Azimuth Distance (km) Brightness Sun altitude
Rises 05:46:09 0° 268° (W) 6,596 11.2 12.6°
Reaches altitude 10° 05:50:15 10° 262° (W) 5,984 11.0 13.2°
Maximum altitude 06:08:53 43° 200° (SSW) 4,967 11.3 16.0°
Drops below altitude 10° 06:31:52 10° 140° (SE) 7,205 13.3 19.5°
Sets 06:37:31 0° 134° (SE) 7,980 13.5 20.3°
